Flag for Lithuania Weather past 2 weeks in Vilnius, Lithuania

Now
43 °F

Broken clouds.


Feels Like: 36 °F
Forecast: 35 / 54 °F
Wind: 14 mph from Northwest

Location: Vilnius Airport

Current Time: Sep 23, 2014 at 8:16:22 PM

Latest Report: Sep 23, 2014 at 7:50 PM


Visibility: N/A

Pressure: 29.71 "Hg

Humidity: 87%

Dew point: 39 °F

Location of VilniusLocation

Historic Weather in Vilnius — Graph

°F

Vilnius temperature yesterday

Maximum temperature yesterday: 57 °F (at 1:50 PM)
Minimum temperature yesterday: 46 °F (at 1:20 AM)
Average temperature yesterday: 54 °F

Past Weeks' High & Low Weather Summary

 TemperatureHumidityPressure
High75 °F (Sep 12, 2:50 PM)100% (Sep 9, 8:50 PM)30.39 "Hg (Sep 9, 8:50 PM)
Low41 °F (Sep 15, 5:20 AM)31% (Sep 13, 2:20 PM)29.50 "Hg (Sep 23, 4:50 AM)
Average57 °F78%30.10 "Hg
* Reported Sep 8 7:20 PM — Sep 23 7:20 PM, Vilnius, Weather by CustomWeather, © 2014

Note: Actual official high and low records may vary slightly from our data, if they occured in-between our weather recording intervals... More about our weather records

Advertising

Vilnius weather history for previous 24 hours

 ConditionsComfort  
Time TempWeatherWind HumidityBarometerVisibility
7:20 PM
Sep 23
45 °FSprinkles. Broken clouds.15 mph87%29.68 "Hg4 mi
6:50 PM45 °FScattered showers. Broken clouds.16 mph87%29.68 "Hg5 mi
6:20 PM45 °FSprinkles. Broken clouds.13 mph93%29.68 "Hg4 mi
5:50 PM45 °FSprinkles. Broken clouds.15 mph87%29.65 "Hg4 mi
5:20 PM46 °FRain showers. More clouds than sun.16 mph87%29.65 "Hg2 mi
4:50 PM48 °FScattered showers. Broken clouds.13 mph82%29.65 "HgN/A
4:20 PM48 °FScattered showers. Broken clouds.13 mph76%29.62 "HgN/A
3:50 PM48 °FScattered showers. Broken clouds.15 mph76%29.62 "HgN/A
3:20 PM50 °FMore clouds than sun.10 mph82%29.62 "HgN/A
2:50 PM50 °FMore clouds than sun.12 mph88%29.59 "HgN/A
2:20 PM50 °FMostly cloudy.12 mph82%29.59 "HgN/A
1:20 PM50 °FFog.12 mph88%29.56 "Hg2 mi
12:50 PM50 °FMostly cloudy.12 mph94%29.56 "Hg5 mi
12:20 PM52 °FMostly cloudy.13 mph82%29.56 "Hg5 mi
11:50 AM50 °FFog.12 mph94%29.56 "Hg2 mi
11:20 AM50 °FLight rain. Fog.6 mph100%29.53 "Hg1 mi
10:50 AM50 °FLight rain. Fog.7 mph100%29.53 "Hg1 mi
10:20 AM50 °FFog.8 mph94%29.53 "Hg1 mi
9:58 AM50 °FFog.9 mph100%29.53 "Hg1 mi
9:20 AM50 °FFog.9 mph94%29.53 "Hg2 mi
8:50 AM50 °FFog.10 mph94%29.50 "Hg2 mi
8:20 AM50 °FFog.10 mph94%29.50 "Hg2 mi
7:50 AM50 °FLight rain. Fog.8 mph94%29.50 "Hg2 mi
7:20 AM50 °FRain. Fog.9 mph94%29.53 "Hg2 mi
6:50 AM50 °FFog.9 mph94%29.50 "Hg2 mi
6:20 AM50 °FLight rain. Fog.10 mph94%29.50 "Hg2 mi
5:50 AM50 °FLight rain. Fog.9 mph94%29.50 "Hg2 mi
5:20 AM52 °FFog.7 mph94%29.50 "Hg2 mi
4:50 AM52 °FFog.7 mph94%29.50 "Hg2 mi
4:20 AM52 °FFog.7 mph94%29.53 "Hg2 mi
3:50 AM52 °FFog.8 mph94%29.53 "Hg2 mi
3:20 AM52 °FFog.8 mph100%29.53 "Hg2 mi
2:50 AM54 °FFog.9 mph94%29.53 "Hg2 mi
2:20 AM54 °FFog.8 mph94%29.53 "Hg2 mi
1:50 AM54 °FSprinkles. Fog.8 mph94%29.53 "Hg2 mi
1:20 AM54 °FSprinkles. Fog.8 mph94%29.53 "Hg2 mi
12:50 AM54 °FSprinkles. Fog.9 mph94%29.53 "Hg2 mi
12:20 AM54 °FSprinkles. Fog.8 mph94%29.53 "Hg2 mi
11:50 PM
Sep 22
54 °FSprinkles. Fog.10 mph94%29.53 "Hg2 mi
11:20 PM54 °FSprinkles. Fog.8 mph94%29.53 "Hg2 mi
10:50 PM54 °FRain showers. Fog.7 mph94%29.53 "Hg2 mi
10:20 PM54 °FRain showers. Fog.10 mph94%29.56 "Hg2 mi
9:50 PM54 °FRain showers. Fog.10 mph100%29.53 "Hg2 mi
9:20 PM55 °FRain showers. Fog.8 mph94%29.53 "Hg2 mi
8:50 PM55 °FRain showers. Fog.9 mph94%29.53 "Hg2 mi
8:20 PM55 °FRain showers. Fog.7 mph94%29.53 "Hg2 mi
Weather by CustomWeather, © 2014

See weather overviewHow to use our weather pages